Puerto Vallarta, Mexico

4:22 AM CST on February 10, 2016 (GMT -0600)
Lic Gustavo Diaz Ordaz International

Weather History for MMPR - November, 2012

Change the Weather History Date:

Friday, November 2, 2012

  Actual Average Record
Temperature  
Mean Temperature 78 °F -  
Max Temperature 86 °F 84 °F 91 °F (1997)
Min Temperature 71 °F 67 °F 68 °F (1999)
Cooling Degree Days 14    
Growing Degree Days 28 (Base 50)    
Moisture  
Dew Point 70 °F    
Average Humidity 79    
Maximum Humidity 94    
Minimum Humidity 51    
Precipitation  
Precipitation 0.00 in - - ()
Sea Level Pressure  
Sea Level Pressure 29.89 in    
Wind  
Wind Speed 4 mph ()    
Max Wind Speed 14 mph    
Max Gust Speed -    
Visibility 10.9 miles    
Events Rain , Thunderstorm    
Averages and records for this station are not official NWS values.
T = Trace of Precipitation, MM = Missing Value Source: Averaged Metar Reports

Daily Weather History Graph

Daily Weather History Graph

Search for Another Location

Airport or City:

Trip Planner

Search our weather history database for the weather conditions in past years. The results will help you decide how hot, cold, wet, or windy it might be!

Date:

Astronomy

Nov. 02, 2012 Rise Set
Actual Time 7:03 AM CST 6:24 PM CST
Civil Twilight 6:41 AM CST 6:47 PM CST
Nautical Twilight 6:14 AM CST 7:13 PM CST
Astronomical Twilight 5:48 AM CST 7:40 PM CST
Moon 9:28 PM CST (11/2) 10:11 AM CST (11/2)
Length of Visible Light 12h 06m
Length of Day
11h 20m
Waning Gibbous, 87% of the Moon is Illuminated
Nov 2
Waning Gibbous
Nov 6
Last Quarter
Nov 13
New
Nov 20
First Quarter
Nov 28
Full

Hourly Weather History & Observations

Time (CST) Temp. Heat Index Dew Point Humidity Pressure Visibility Wind Dir Wind Speed Gust Speed Precip Events Conditions
12:50 AM 75.2 °F - 73.4 °F 94% 29.91 in 10.0 mi Calm Calm - N/A Rain Light Rain
1:49 AM 77.0 °F - 73.4 °F 89% 29.90 in 10.0 mi Calm Calm - N/A   Mostly Cloudy
2:49 AM 77.0 °F - 75.2 °F 94% 29.90 in 10.0 mi Calm Calm - N/A   Mostly Cloudy
3:49 AM 75.2 °F - 73.4 °F 94% 29.89 in 10.0 mi NE 5.8 mph - N/A   Scattered Clouds
4:49 AM 75.2 °F - 73.4 °F 94% 29.90 in 10.0 mi Calm Calm - N/A   Scattered Clouds
5:49 AM 73.4 °F - 69.8 °F 88% 29.89 in 10.0 mi NNE 4.6 mph - N/A   Clear
6:49 AM 73.4 °F - 68.0 °F 83% 29.90 in 12.0 mi NNE 8.1 mph - N/A   Scattered Clouds
7:45 AM 73.4 °F - 69.8 °F 88% 29.90 in 15.0 mi Calm Calm - N/A   Scattered Clouds
8:48 AM 78.8 °F - 69.8 °F 74% 29.90 in 15.0 mi Calm Calm - N/A   Scattered Clouds
9:45 AM 82.4 °F 84.6 °F 66.2 °F 58% 29.94 in 15.0 mi Calm Calm - N/A   Mostly Cloudy
10:46 AM 86.0 °F 88.2 °F 66.2 °F 51% 29.94 in 15.0 mi Calm Calm - N/A   Scattered Clouds
11:53 AM 86.0 °F 90.4 °F 69.8 °F 58% 29.90 in 15.0 mi South 6.9 mph - N/A   Scattered Clouds
12:45 PM 86.0 °F 90.4 °F 69.8 °F 58% 29.90 in 15.0 mi SSW 9.2 mph - N/A   Scattered Clouds
1:46 PM 86.0 °F 91.8 °F 71.6 °F 62% 29.87 in 15.0 mi SSW 11.5 mph - N/A   Mostly Cloudy
2:47 PM 86.0 °F 93.4 °F 73.4 °F 66% 29.85 in 10.0 mi SW 12.7 mph - N/A   Mostly Cloudy
3:47 PM 86.0 °F 93.4 °F 73.4 °F 66% 29.85 in 10.0 mi SSW 13.8 mph - N/A   Mostly Cloudy
4:46 PM 84.2 °F 89.6 °F 71.6 °F 66% 29.84 in 12.0 mi SSW 6.9 mph - N/A   Mostly Cloudy
5:48 PM 77.0 °F - 66.2 °F 69% 29.86 in 10.0 mi NE 6.9 mph - N/A Thunderstorm Thunderstorm
6:04 PM 73.4 °F - 66.2 °F 78% 29.88 in 0.5 mi WNW 9.2 mph - N/A Rain , Thunderstorm Thunderstorms and Rain
6:19 PM 71.6 °F - 68.0 °F 88% 29.88 in 4.0 mi East 3.5 mph - N/A Rain , Thunderstorm Thunderstorms and Rain
6:48 PM 71.6 °F - 68.0 °F 88% 29.88 in 10.0 mi NE 5.8 mph - N/A   Overcast
7:46 PM 71.6 °F - 68.0 °F 88% 29.89 in 10.0 mi NNE 11.5 mph - N/A   Scattered Clouds
8:44 PM 71.6 °F - 68.0 °F 88% 29.90 in 10.0 mi NNE 5.8 mph - N/A   Scattered Clouds
9:45 PM 71.6 °F - 68.0 °F 88% 29.91 in 10.0 mi NE 4.6 mph - N/A   Mostly Cloudy
10:46 PM 71.6 °F - 68.0 °F 88% 29.91 in 10.0 mi NNE 6.9 mph - N/A   Mostly Cloudy
11:44 PM 71.6 °F - 68.0 °F 88% 29.91 in 10.0 mi Calm Calm - N/A   Mostly Cloudy